Location: Unspecified
(0.0000°N, 0.0000°E)
Time: 13:25:21
(UTC+00:00)

X-37B - Pass Details

Date: 02 December 2021
Orbit: 329 x 342 km, 45.0° (Epoch: 06 December)

Event Time Altitude Azimuth Distance (km) Brightness Sun altitude
Exits shadow 04:04:51 11° 60° (ENE) 1,191 3.5 -24.1°
Drops below altitude 10° 04:05:15 10° 68° (ENE) 1,241 3.7 -24.0°
Sets 04:08:17 0° 105° (ESE) 2,077 5.7 -23.3°
